[[{"header":{"parameterUnit":"m.s-1","parameterCategory":1,"la1":30.2991,"la2":30.254,"lo1":-89.0895,"lo2":-89.0444,"dy":0.0017,"dx":0.0017,"nx":28,"ny":28,"refTime":"2025-06-15T09:00:00:Z","depth":0,"parameterNumber":2,"parameterNumberName":"U-component_of_WINDS"},"data":[0,0,0,0,0,0,0,0,0,0,0,0,0,0,0,0,0,0,0,0,0,0,0,0,0,0,0,0,0,0,0,0,0,0,0,0,0,0,0,0,0,0,0,0,0,0,0,0,0,0,0,0,0,0,0,0,0,0,1.1165,1.1165,0,1.1222,1.1223,1.1223,1.1206,1.1205,1.1204,1.1203,1.1265,1.1267,1.127,0,0,0,0,0,0,0,0,0,0,0,0,0,1.1045,1.1047,1.1165,1.1165,1.1166,1.1222,1.1223,1.1223,1.1207,1.1205,1.1204,1.1202,1.1264,1.1267,1.127,0,0,0,0,0,0,0,0,0,0,0,0,0,1.1099,1.1048,1.1164,1.1164,1.1165,1.1222,1.1223,1.1224,1.1207,1.1205,1.1203,1.1202,1.1263,1.1267,1.1271,1.1332,0,0,1.1284,1.1285,0,0,0,0,0,0,0,0,1.1096,1.1104,1.1164,1.1164,1.1165,1.1205,1.1203,1.126,1.1207,1.1191,1.1203,1.1201,1.1247,1.1252,1.1267,1.1335,1.1338,1.1284,1.1286,1.1288,1.1289,0,0,0,0,0,0,0,1.1092,1.1101,1.1187,1.1164,1.1165,1.1163,1.1168,1.1214,1.1228,1.1192,1.1191,1.1198,1.1247,1.1263,1.1268,1.1339,1.1284,1.1287,1.129,1.1292,1.1465,1.1467,0,0,0,0,0,0,1.1088,1.1098,1.1186,1.1189,1.1125,1.1166,1.1173,1.1194,1.1228,1.1231,1.1199,1.1197,1.1257,1.1263,1.127,1.1347,1.1288,1.1292,1.1294,1.1463,1.1465,1.1467,0,0,0,0,0,0,1.1085,1.1095,1.1183,1.1143,1.1154,1.117,1.1194,1.1196,1.1212,1.1233,1.1236,1.1213,1.1255,1.1264,1.1318,1.1349,1.1294,1.1298,1.146,1.1463,1.1466,1.1499,0,0,0,0,0,0,1.1082,1.1095,1.1117,1.1144,1.1156,1.1228,1.1196,1.1199,1.1219,1.1216,1.1247,1.125,1.1255,1.1312,1.1322,1.1353,1.1301,1.1457,1.1461,1.1465,1.1496,1.1503,1.151,0,0,0,0,0,1.1077,1.1124,1.1118,1.1129,1.1184,1.123,1.1237,1.1241,1.1222,1.1245,1.1259,1.1249,1.1343,1.1317,1.1328,1.1362,1.1455,1.146,1.1465,1.1492,1.1502,1.151,0,0,0,0,0,0,1.1101,1.1127,1.1121,1.1178,1.1202,1.1227,1.1257,1.125,1.1281,1.1278,1.1282,1.1289,1.1344,1.1358,1.1328,1.1425,1.1397,1.1404,1.1414,1.1423,1.143,1.1426,1.1304,0,0,0,0,0,1.1112,1.1146,1.1168,1.1216,1.1228,1.1241,1.126,1.1261,1.1287,1.1297,1.1315,1.1341,1.1377,1.14,1.1434,1.1497,1.1505,1.1526,1.1533,1.1539,1.1546,1.1583,1.1593,1.1483,1.1483,1.1483,0,0,1.1137,1.1156,1.1177,1.1221,1.124,1.1276,1.1249,1.1288,1.1316,1.1303,1.1355,1.1369,1.1399,1.1458,1.1485,1.1472,1.1578,1.1545,1.1549,1.1553,1.1589,1.1599,1.1609,1.1486,1.1486,1.1485,0,0,1.1201,1.1217,1.126,1.128,1.1308,1.1317,1.1327,1.1354,1.1363,1.1415,1.1407,1.1441,1.1501,1.1524,1.1543,1.1618,1.1611,1.1629,1.1667,1.1703,1.1712,1.172,1.1749,1.1759,1.1635,1.1635,1.1636,0,1.1228,1.1281,1.1283,1.1324,1.1345,1.1334,1.1379,1.1399,1.1437,1.1453,1.1437,1.1515,1.1534,1.16,1.1618,1.1633,1.1647,1.1626,1.171,1.1718,1.1725,1.1753,1.1764,1.1638,1.1637,1.1637,1.1637,0,1.1315,1.1352,1.1383,1.1421,1.1445,1.1488,1.1498,1.1523,1.1522,1.1533,1.1587,1.161,1.165,1.1665,1.1665,1.1732,1.1723,1.1708,1.1681,1.1738,1.1764,1.1775,1.1641,1.164,1.1639,1.1639,0,0,1.1394,1.1433,1.1445,1.1463,1.1495,1.1525,1.1568,1.1606,1.1629,1.1656,1.1694,1.1747,1.1735,1.1757,1.1759,1.1791,1.1852,1.1773,1.1774,1.1789,1.1931,1.1942,1.1954,1.1847,1.1849,1.1851,1.1929,0,1.1462,1.1537,1.1541,1.161,1.1646,1.1638,1.1676,1.1701,1.1713,1.1747,1.176,1.1798,1.1777,1.1791,1.1822,1.1838,1.1881,1.1832,1.1885,1.1886,1.1879,1.1968,1.198,1.2052,1.1939,1.194,1.1942,0,1.1551,1.1582,1.1654,1.1683,1.1699,1.1733,1.177,1.1801,1.183,1.1837,1.1863,1.1861,1.1908,1.1877,1.1943,1.191,1.1932,1.1943,1.1946,1.1953,1.1918,1.1978,1.2075,1.2087,1.1958,1.1956,1.1955,0,1.1605,1.1664,1.1716,1.1731,1.1766,1.179,1.1806,1.1833,1.1857,1.189,1.1906,1.1943,1.1965,1.1995,1.2005,1.1981,1.2071,1.2041,1.208,1.208,1.21,1.2099,1.2204,1.2112,1.2111,1.2111,1.2111,0,1.1681,1.1726,1.174,1.1772,1.1824,1.1829,1.188,1.1895,1.1919,1.1956,1.1951,1.1985,1.1995,1.2032,1.204,1.2095,1.2104,1.2112,1.2114,1.2114,1.2113,1.2129,1.2125,1.2114,1.2113,1.2113,1.2112,0,1.1749,1.176,1.1817,1.1845,1.1854,1.1891,1.1916,1.1948,1.196,1.2006,1.2017,1.2036,1.2079,1.2091,1.2143,1.2149,1.2214,1.2211,1.2204,1.2205,1.2244,1.2241,1.2364,1.2381,1.2276,1.2277,1.2278,0,1.1798,1.1833,1.1866,1.1889,1.1906,1.1944,1.1969,1.1976,1.2002,1.2039,1.2067,1.211,1.2144,1.2215,1.2234,1.2275,1.2273,1.2314,1.2279,1.2278,1.2276,1.2275,1.2279,1.232,1.2322,1.2322,1.2323,0,1.1884,1.1888,1.1923,1.1961,1.199,1.202,1.2049,1.2069,1.208,1.211,1.2154,1.2181,1.2235,1.2279,1.232,1.2338,1.2334,1.2334,1.2345,1.2346,1.2342,1.2347,1.2224,1.2331,1.233,1.233,1.2329,1.2329,1.1946,1.1977,1.2006,1.2045,1.2068,1.2096,1.2128,1.2144,1.218,1.2224,1.2227,1.2275,1.2307,1.2362,1.2382,1.2422,1.241,1.2426,1.2431,1.2435,1.2439,1.2334,1.2429,1.2429,1.2429,1.2429,1.2429,0,1.2033,1.2051,1.2088,1.2129,1.2161,1.2153,1.2185,1.2213,1.2255,1.2284,1.2319,1.2371,1.2414,1.2437,1.248,1.2507,1.2507,1.2519,1.2518,1.2522,1.2446,1.2433,1.2519,1.2519,1.2519,1.2519,1.2519,1.2519,1.2082,1.2136,1.2144,1.221,1.2228,1.2275,1.2295,1.2322,1.2345,1.2403,1.2439,1.2453,1.2481,1.2526,1.2566,1.2572,1.2589,1.2603,1.2608,1.2537,1.2527,1.2519,1.2506,1.2606,1.2606,1.2681,1.2682,1.2682]},{"header":{"parameterUnit":"m.s-1","parameterCategory":1,"la1":30.2991,"la2":30.254,"lo1":-89.0895,"lo2":-89.0444,"dy":0.0017,"dx":0.0017,"nx":28,"ny":28,"refTime":"2025-06-15T09:00:00:Z","depth":0,"parameterNumber":3,"parameterNumberName":"V-component_of_WINDS"},"data":[0,0,0,0,0,0,0,0,0,0,0,0,0,0,0,0,0,0,0,0,0,0,0,0,0,0,0,0,0,0,0,0,0,0,0,0,0,0,0,0,0,0,0,0,0,0,0,0,0,0,0,0,0,0,0,0,0,0,-0.3251,-0.3251,0,-0.3286,-0.3286,-0.3286,-0.3312,-0.3312,-0.3313,-0.3313,-0.3347,-0.3348,-0.3348,0,0,0,0,0,0,0,0,0,0,0,0,0,-0.3205,-0.3206,-0.3251,-0.3251,-0.3251,-0.3285,-0.3286,-0.3286,-0.3312,-0.3312,-0.3313,-0.3313,-0.3347,-0.3348,-0.3348,0,0,0,0,0,0,0,0,0,0,0,0,0,-0.3231,-0.3206,-0.3251,-0.3268,-0.327,-0.3285,-0.3286,-0.3287,-0.3312,-0.3312,-0.3313,-0.3313,-0.3346,-0.3347,-0.3348,-0.3348,0,0,-0.3352,-0.3352,0,0,0,0,0,0,0,0,-0.3229,-0.3232,-0.3265,-0.3267,-0.3269,-0.3295,-0.3282,-0.3307,-0.3312,-0.3296,-0.3313,-0.3313,-0.3329,-0.3332,-0.3337,-0.335,-0.3351,-0.3352,-0.3352,-0.3353,-0.3353,0,0,0,0,0,0,0,-0.3227,-0.3231,-0.3264,-0.3266,-0.3268,-0.3274,-0.3278,-0.3287,-0.331,-0.3298,-0.33,-0.3303,-0.333,-0.3336,-0.3338,-0.3351,-0.3352,-0.3353,-0.3353,-0.3354,-0.3365,-0.3364,0,0,0,0,0,0,-0.3223,-0.3229,-0.3263,-0.3265,-0.325,-0.3275,-0.3279,-0.3286,-0.331,-0.3314,-0.3303,-0.3304,-0.3334,-0.3337,-0.334,-0.334,-0.3353,-0.3354,-0.3354,-0.3365,-0.3364,-0.3364,0,0,0,0,0,0,-0.3222,-0.3226,-0.3262,-0.3248,-0.3253,-0.3275,-0.3283,-0.3287,-0.3293,-0.3314,-0.3319,-0.3305,-0.3335,-0.3338,-0.3346,-0.3342,-0.3354,-0.3355,-0.3365,-0.3365,-0.3364,-0.3342,0,0,0,0,0,0,-0.322,-0.3225,-0.3226,-0.3248,-0.3254,-0.3268,-0.3283,-0.3287,-0.3295,-0.3297,-0.3317,-0.3321,-0.3335,-0.3344,-0.3347,-0.3344,-0.3356,-0.3366,-0.3365,-0.3364,-0.3343,-0.334,-0.3338,0,0,0,0,0,-0.3219,-0.3217,-0.3225,-0.3229,-0.3255,-0.3267,-0.3271,-0.3288,-0.3294,-0.3295,-0.3308,-0.332,-0.3342,-0.3345,-0.3348,-0.3345,-0.3366,-0.3365,-0.3364,-0.3344,-0.3341,-0.3338,0,0,0,0,0,0,-0.3194,-0.3221,-0.323,-0.3236,-0.3249,-0.3272,-0.3273,-0.3284,-0.3295,-0.3297,-0.3317,-0.3321,-0.3327,-0.3337,-0.3339,-0.3345,-0.3355,-0.3355,-0.3339,-0.3336,-0.3334,-0.3331,-0.3357,0,0,0,0,0,-0.3189,-0.3198,-0.3221,-0.3224,-0.323,-0.325,-0.3256,-0.3268,-0.3283,-0.3288,-0.3303,-0.3316,-0.3326,-0.3331,-0.3342,-0.3345,-0.3349,-0.3344,-0.3342,-0.334,-0.3339,-0.3341,-0.3339,-0.3362,-0.3362,-0.3362,0,0,-0.3179,-0.3195,-0.3199,-0.3219,-0.3231,-0.3239,-0.3255,-0.3262,-0.3268,-0.3289,-0.3297,-0.3308,-0.3324,-0.3329,-0.3332,-0.3338,-0.3334,-0.3339,-0.3337,-0.3338,-0.334,-0.3338,-0.3336,-0.3361,-0.3361,-0.3361,0,0,-0.3165,-0.3178,-0.3182,-0.3194,-0.3211,-0.3225,-0.3226,-0.3247,-0.3255,-0.3263,-0.3279,-0.3286,-0.3303,-0.3313,-0.3321,-0.3311,-0.3322,-0.3314,-0.3302,-0.3304,-0.3302,-0.33,-0.3296,-0.3295,-0.3313,-0.3313,-0.3313,0,-0.315,-0.3163,-0.3182,-0.3189,-0.3197,-0.3217,-0.3221,-0.3231,-0.3251,-0.3256,-0.3262,-0.3283,-0.3295,-0.3303,-0.3301,-0.3306,-0.3307,-0.3311,-0.3301,-0.3299,-0.3298,-0.3294,-0.3293,-0.3312,-0.3312,-0.3312,-0.3312,0,-0.3144,-0.3153,-0.3154,-0.3173,-0.3181,-0.3187,-0.3206,-0.3212,-0.3223,-0.3236,-0.3244,-0.3259,-0.3273,-0.3276,-0.3287,-0.3285,-0.3288,-0.3297,-0.3307,-0.3295,-0.3291,-0.329,-0.331,-0.3311,-0.3311,-0.3311,0,0,-0.3115,-0.3145,-0.3145,-0.3154,-0.3175,-0.3182,-0.3188,-0.3202,-0.3206,-0.3219,-0.3224,-0.3238,-0.3247,-0.3255,-0.3267,-0.3269,-0.3259,-0.3278,-0.3279,-0.3273,-0.3258,-0.325,-0.3248,-0.3267,-0.3267,-0.3267,-0.3256,0,-0.3103,-0.3116,-0.3133,-0.3139,-0.3148,-0.3167,-0.3172,-0.3185,-0.3197,-0.3206,-0.3219,-0.3228,-0.3239,-0.3244,-0.3246,-0.326,-0.3256,-0.3261,-0.3271,-0.3271,-0.3266,-0.3247,-0.3239,-0.3228,-0.3255,-0.3255,-0.3255,0,-0.3092,-0.3104,-0.3112,-0.3132,-0.3136,-0.3141,-0.3155,-0.3162,-0.3178,-0.3186,-0.3196,-0.3209,-0.3216,-0.3226,-0.3235,-0.3238,-0.3243,-0.325,-0.325,-0.3251,-0.3262,-0.3246,-0.3225,-0.3223,-0.3253,-0.3253,-0.3253,0,-0.3069,-0.3088,-0.3094,-0.3101,-0.3126,-0.3128,-0.3138,-0.3154,-0.3161,-0.3173,-0.3178,-0.319,-0.3197,-0.3206,-0.3222,-0.3228,-0.3229,-0.3241,-0.3236,-0.3236,-0.3235,-0.3235,-0.3213,-0.3239,-0.3239,-0.3239,-0.324,0,-0.3054,-0.3057,-0.3084,-0.3088,-0.3093,-0.3113,-0.3116,-0.3128,-0.3142,-0.3148,-0.3166,-0.3171,-0.3192,-0.32,-0.3213,-0.3218,-0.3221,-0.3228,-0.3231,-0.3226,-0.3225,-0.3229,-0.323,-0.3239,-0.3239,-0.3239,-0.3239,0,-0.3029,-0.3047,-0.3055,-0.3078,-0.3084,-0.3086,-0.3105,-0.3109,-0.3122,-0.313,-0.3133,-0.3153,-0.3163,-0.3181,-0.3196,-0.3204,-0.3207,-0.3213,-0.3202,-0.3203,-0.3198,-0.3198,-0.3177,-0.3175,-0.3203,-0.3203,-0.3203,0,-0.3018,-0.3021,-0.3044,-0.305,-0.3059,-0.3068,-0.3076,-0.3096,-0.3102,-0.312,-0.3122,-0.3134,-0.3144,-0.3159,-0.3175,-0.3186,-0.3192,-0.3184,-0.3193,-0.3188,-0.3191,-0.319,-0.319,-0.3181,-0.3181,-0.3181,-0.318,0,-0.2996,-0.3005,-0.3015,-0.3029,-0.3038,-0.3049,-0.3061,-0.3065,-0.3087,-0.3094,-0.3105,-0.3113,-0.3128,-0.3139,-0.3153,-0.3162,-0.3175,-0.3177,-0.3177,-0.3171,-0.3164,-0.3167,-0.3195,-0.3178,-0.3178,-0.3178,-0.3178,-0.3178,-0.2977,-0.2981,-0.2998,-0.3009,-0.302,-0.3031,-0.3036,-0.3051,-0.306,-0.3074,-0.3085,-0.3095,-0.311,-0.313,-0.3139,-0.3146,-0.3152,-0.3151,-0.3151,-0.315,-0.3148,-0.3164,-0.3149,-0.3149,-0.3149,-0.3149,-0.3149,0,-0.2956,-0.2968,-0.2978,-0.2995,-0.3003,-0.3015,-0.3029,-0.3035,-0.3044,-0.3057,-0.3067,-0.3079,-0.309,-0.3107,-0.3118,-0.3121,-0.3127,-0.3123,-0.3123,-0.3125,-0.3143,-0.3142,-0.3118,-0.3118,-0.3118,-0.3118,-0.3118,-0.3118,-0.2946,-0.2952,-0.2963,-0.2976,-0.2988,-0.2998,-0.3005,-0.3015,-0.3026,-0.3038,-0.3048,-0.3059,-0.3073,-0.3086,-0.3097,-0.3101,-0.3104,-0.3099,-0.3105,-0.3121,-0.3124,-0.3127,-0.3126,-0.31,-0.31,-0.3087,-0.3087,-0.3087]}]]